STARLINK-5769, 55585

Orbit data source: Space-Track

STARLINK-5769, 55585 is a payload satellite owned by SpaceX/Seattle (US) in LEO that was launched on Sun, 12 Feb 2023 UTC via an FALCON 9 launch vehicle from the Air Force Eastern Test Range (AFETR). Payload-class satellites include a variety of spacecraft equipped with specific instruments for various scientific and technological missions. These include communications satellites like Starlink; space stations such as the ISS; scientific satellites like the Hubble; Earth observation satellites from companies like Planet Labs, Umbra, and HawkEye 360; GPS; miniature CubeSats for education and research; and military/defense satellites.

Loading next visibility...
Identifier
55585, 2023-020S
Orbit
LEO
Country
Flag of USUS
Related business
Manufacturer
SpaceX/Seattle
Mission
Operational spacecraft
Bus & Motor
STARLINK, Unknown motor
Mass
305 kg wet, ~290 kg dry
Launch date (UTC)
2023-02-12 (3 years ago)
Launch vehicle
FALCON 9
Launch site
Air Force Eastern Test Range (AFETR)
Object type
Payload
Rocket body
Debris
Shape & HBR
Unknown shape, 10.1 m
Radar Cross Section
Large (>1 m²)

Expand to show TLE details & history
Last TLE update: 16 hours ago

TLE from 16 hours ago
0 STARLINK-5769
1 55585U 23020S   25340.54719336  .00008255  00000-0  62461-3 0  9999
2 55585  43.0019 138.1851 0001492 281.1602  78.9072 15.02584140155059
Epoch: 2025-12-06T13:07Z
TLE epoch observation values (Epoch: 2025-12-06T13:07:57.506Z)
Latitude
-0.00005°
Longitude
-134.37793°
Altitude
558.511 km
Speed
7.584 km/s
True Right ascension
09h 12m 44s
True Declination
0° 00' 00"
Sunlit
Object was in partial shadow at epoch
Visualization orbit readout
Latitude
Unknown
Longitude
Unknown
Altitude
Unknown
Speed
Unknown
Apparent Right ascension
Unknown
Apparent Declination
Unknown
Sunlit
N/A
Visualization observer readout
Local Sidereal Time
03:11:25
Azimuth
Unknown
Elevation
Unknown
Doppler factor
Unknown
Orbital elements
Apogee altitude
561.89 km
Perigee altitude
559.82 km
Semi-major axis
6,938.992 km
Eccentricity
0.00015
Inclination
43.0019°
RAAN
138.1851°
Arg. of periapsis
281.1602°
True anomaly
78.92398°
Mean anomaly
78.9072°
Eccentric anomaly
78.91559°
Mean motion
3.7549 °/min
Orbital period
95.87 mins
BSTAR
0.00062461
Loading maneuver chart data...
Computing Atmospheric mass density...
Loading historical data...
Loading historical data...
Loading historical data...
Loading historical data...
Loading historical data...
Loading historical data...
Loading historical data...

Documentation

Showing up to 5 results
|